owner,sensor,date,latitude,longitude,vertical_datum,wind_speed,wind_to_direction,wind_speed_of_gust,qcFlag 
COMPS,ioos:station:USF.COMPS:FHP:1,2017-02-01T00:00:00Z,28.1530,-82.8010,10.0,2.67,229.84,3.13,'1111122,1111122,1111122' 
COMPS,ioos:station:USF.COMPS:FHP:1,2017-02-01T00:06:00Z,28.1530,-82.8010,10.0,2.3,237.26,2.64,'1111122,1111122,1111122' 
COMPS,ioos:station:USF.COMPS:FHP:1,2017-02-01T00:12:00Z,28.1530,-82.8010,10.0,2.29,234.76,2.64,'1111122,1111122,1111122' 
COMPS,ioos:station:USF.COMPS:FHP:1,2017-02-01T00:18:00Z,28.1530,-82.8010,10.0,2.33,231.63,2.64,'1111122,1111122,1111122' 
COMPS,ioos:station:USF.COMPS:FHP:1,2017-02-01T00:24:00Z,28.1530,-82.8010,10.0,2.24,234.64,2.45,'1111122,1111122,1111122' 
COMPS,ioos:station:USF.COMPS:FHP:1,2017-02-01T00:30:00Z,28.1530,-82.8010,10.0,2.17,233.5,2.45,'1111122,1111122,1111122' 
COMPS,ioos:station:USF.COMPS:FHP:1,2017-02-01T00:36:00Z,28.1530,-82.8010,10.0,2.18,228.9,2.35,'1111122,1111122,1111122' 
COMPS,ioos:station:USF.COMPS:FHP:1,2017-02-01T00:42:00Z,28.1530,-82.8010,10.0,2.38,225.89,2.64,'1111122,1111122,1111122' 
COMPS,ioos:station:USF.COMPS:FHP:1,2017-02-01T00:48:00Z,28.1530,-82.8010,10.0,2.41,222.58,2.84,'1111122,1111122,1111122' 
COMPS,ioos:station:USF.COMPS:FHP:1,2017-02-01T00:54:00Z,28.1530,-82.8010,10.0,2.49,219.11,2.74,'1111122,1111122,1111122' 
COMPS,ioos:station:USF.COMPS:FHP:1,2017-02-01T01:00:00Z,28.1530,-82.8010,10.0,2.62,218.01,2.94,'1111122,1111122,1111122' 
COMPS,ioos:station:USF.COMPS:FHP:1,2017-02-01T01:06:00Z,28.1530,-82.8010,10.0,2.22,218.78,2.54,'1111122,1111122,1111122' 
COMPS,ioos:station:USF.COMPS:FHP:1,2017-02-01T01:12:00Z,28.1530,-82.8010,10.0,2.12,219.46,2.54,'1111122,1111122,1111122' 
COMPS,ioos:station:USF.COMPS:FHP:1,2017-02-01T01:18:00Z,28.1530,-82.8010,10.0,1.8,217.57,2.15,'1111122,1111122,1111122' 
COMPS,ioos:station:USF.COMPS:FHP:1,2017-02-01T01:24:00Z,28.1530,-82.8010,10.0,1.82,222.72,2.15,'1111122,1111122,1111122' 
COMPS,ioos:station:USF.COMPS:FHP:1,2017-02-01T01:30:00Z,28.1530,-82.8010,10.0,1.82,218.41,2.15,'1111122,1111122,1111122' 
COMPS,ioos:station:USF.COMPS:FHP:1,2017-02-01T01:36:00Z,28.1530,-82.8010,10.0,1.81,226.6,2.05,'1111122,1111122,1111122' 
COMPS,ioos:station:USF.COMPS:FHP:1,2017-02-01T01:42:00Z,28.1530,-82.8010,10.0,1.85,228.96,2.15,'1111122,1111122,1111122' 
COMPS,ioos:station:USF.COMPS:FHP:1,2017-02-01T01:48:00Z,28.1530,-82.8010,10.0,1.69,222.27,2.05,'1111122,1111122,1111122' 
COMPS,ioos:station:USF.COMPS:FHP:1,2017-02-01T01:54:00Z,28.1530,-82.8010,10.0,1.45,224.59,1.76,'1111122,1111122,1111122' 
COMPS,ioos:station:USF.COMPS:FHP:1,2017-02-01T02:00:00Z,28.1530,-82.8010,10.0,1.65,236.72,2.05,'1111122,1111122,1111122' 
COMPS,ioos:station:USF.COMPS:FHP:1,2017-02-01T02:06:00Z,28.1530,-82.8010,10.0,1.06,241.7,1.47,'1111122,1111122,1111122' 
COMPS,ioos:station:USF.COMPS:FHP:1,2017-02-01T02:12:00Z,28.1530,-82.8010,10.0,0.95,229.35,1.27,'1111122,1111122,1111122' 
COMPS,ioos:station:USF.COMPS:FHP:1,2017-02-01T02:18:00Z,28.1530,-82.8010,10.0,0.76,224.28,1.17,'1111122,1111122,1111122' 
COMPS,ioos:station:USF.COMPS:FHP:1,2017-02-01T02:24:00Z,28.1530,-82.8010,10.0,0.35,222.25,0.68,'1111122,1111122,1111122' 
COMPS,ioos:station:USF.COMPS:FHP:1,2017-02-01T02:30:00Z,28.1530,-82.8010,10.0,0.48,228.06,0.78,'1111122,1111122,1111122' 
COMPS,ioos:station:USF.COMPS:FHP:1,2017-02-01T02:36:00Z,28.1530,-82.8010,10.0,0.57,229.66,0.78,'1111122,1111122,1111122' 
COMPS,ioos:station:USF.COMPS:FHP:1,2017-02-01T02:42:00Z,28.1530,-82.8010,10.0,0.41,228.87,0.68,'1111122,1111122,1111122' 
COMPS,ioos:station:USF.COMPS:FHP:1,2017-02-01T02:48:00Z,28.1530,-82.8010,10.0,0.23,222.92,0.88,'1111122,1111122,1111122' 
COMPS,ioos:station:USF.COMPS:FHP:1,2017-02-01T02:54:00Z,28.1530,-82.8010,10.0,0.1,197.96,0.29,'1111122,1111122,1111122' 
COMPS,ioos:station:USF.COMPS:FHP:1,2017-02-01T03:00:00Z,28.1530,-82.8010,10.0,0.1,195.6,0.19,'1111122,1111122,1111122' 
COMPS,ioos:station:USF.COMPS:FHP:1,2017-02-01T03:06:00Z,28.1530,-82.8010,10.0,0.55,228.61,1.07,'1111122,1111122,1111122' 
COMPS,ioos:station:USF.COMPS:FHP:1,2017-02-01T03:12:00Z,28.1530,-82.8010,10.0,0.8,215.89,1.07,'1111122,1111122,1111122' 
COMPS,ioos:station:USF.COMPS:FHP:1,2017-02-01T03:18:00Z,28.1530,-82.8010,10.0,0.81,169.73,0.97,'1111122,1111122,1111122' 
COMPS,ioos:station:USF.COMPS:FHP:1,2017-02-01T03:24:00Z,28.1530,-82.8010,10.0,0.85,176.24,1.17,'1111122,1111122,1111122' 
COMPS,ioos:station:USF.COMPS:FHP:1,2017-02-01T03:30:00Z,28.1530,-82.8010,10.0,0.91,209.31,1.37,'1111122,1111122,1111122' 
COMPS,ioos:station:USF.COMPS:FHP:1,2017-02-01T03:36:00Z,28.1530,-82.8010,10.0,1.29,231.73,1.66,'1111122,1111122,1111122' 
COMPS,ioos:station:USF.COMPS:FHP:1,2017-02-01T03:42:00Z,28.1530,-82.8010,10.0,1.15,231.9,1.56,'1111122,1111122,1111122' 
COMPS,ioos:station:USF.COMPS:FHP:1,2017-02-01T03:48:00Z,28.1530,-82.8010,10.0,0.5,190.02,0.97,'1111122,1111122,1111122' 
COMPS,ioos:station:USF.COMPS:FHP:1,2017-02-01T03:54:00Z,28.1530,-82.8010,10.0,0.35,164.44,0.68,'1111122,1111122,1111122' 
COMPS,ioos:station:USF.COMPS:FHP:1,2017-02-01T04:00:00Z,28.1530,-82.8010,10.0,0.09,166.58,0.09,'1111122,1111122,1111122' 
COMPS,ioos:station:USF.COMPS:FHP:1,2017-02-01T04:06:00Z,28.1530,-82.8010,10.0,0.1,106.69,0.29,'1111122,1111122,1111122' 
COMPS,ioos:station:USF.COMPS:FHP:1,2017-02-01T04:12:00Z,28.1530,-82.8010,10.0,0.32,59.05,0.49,'1111122,1111122,1111122' 
COMPS,ioos:station:USF.COMPS:FHP:1,2017-02-01T04:18:00Z,28.1530,-82.8010,10.0,0.24,61.66,0.39,'1111122,1111122,1111122' 
COMPS,ioos:station:USF.COMPS:FHP:1,2017-02-01T04:24:00Z,28.1530,-82.8010,10.0,0.13,67.1,0.68,'1111122,1111122,1111122' 
COMPS,ioos:station:USF.COMPS:FHP:1,2017-02-01T04:30:00Z,28.1530,-82.8010,10.0,0.14,121.58,0.68,'1111122,1111122,1111122' 
COMPS,ioos:station:USF.COMPS:FHP:1,2017-02-01T04:36:00Z,28.1530,-82.8010,10.0,0.09,121.58,0.09,'1111122,1111122,1111122' 
COMPS,ioos:station:USF.COMPS:FHP:1,2017-02-01T04:42:00Z,28.1530,-82.8010,10.0,0.09,121.6,0.09,'1111122,1111122,1111122' 
COMPS,ioos:station:USF.COMPS:FHP:1,2017-02-01T04:48:00Z,28.1530,-82.8010,10.0,0.24,127.37,0.58,'1111122,1111122,1111122' 
COMPS,ioos:station:USF.COMPS:FHP:1,2017-02-01T04:54:00Z,28.1530,-82.8010,10.0,0.7,141.47,0.97,'1111122,1111122,1111122' 
COMPS,ioos:station:USF.COMPS:FHP:1,2017-02-01T05:00:00Z,28.1530,-82.8010,10.0,0.17,147.65,0.58,'1111122,1111122,1111122' 
COMPS,ioos:station:USF.COMPS:FHP:1,2017-02-01T05:06:00Z,28.1530,-82.8010,10.0,0.09,151.03,0.09,'1111122,1111122,1111122' 
COMPS,ioos:station:USF.COMPS:FHP:1,2017-02-01T05:12:00Z,28.1530,-82.8010,10.0,0.09,148.83,0.09,'1111122,1111122,1111122' 
COMPS,ioos:station:USF.COMPS:FHP:1,2017-02-01T05:18:00Z,28.1530,-82.8010,10.0,0.09,118.73,0.09,'1111122,1111122,1111122' 
COMPS,ioos:station:USF.COMPS:FHP:1,2017-02-01T05:24:00Z,28.1530,-82.8010,10.0,0.09,123.98,0.09,'1111122,1111122,1111122' 
COMPS,ioos:station:USF.COMPS:FHP:1,2017-02-01T05:30:00Z,28.1530,-82.8010,10.0,0.09,146.3,0.09,'1111122,1111122,1111122' 
COMPS,ioos:station:USF.COMPS:FHP:1,2017-02-01T05:36:00Z,28.1530,-82.8010,10.0,0.23,148.46,0.39,'1111122,1111122,1111122' 
COMPS,ioos:station:USF.COMPS:FHP:1,2017-02-01T05:42:00Z,28.1530,-82.8010,10.0,0.42,163.25,0.68,'1111122,1111122,1111122' 
COMPS,ioos:station:USF.COMPS:FHP:1,2017-02-01T05:48:00Z,28.1530,-82.8010,10.0,0.75,167.8,0.88,'1111122,1111122,1111122' 
COMPS,ioos:station:USF.COMPS:FHP:1,2017-02-01T05:54:00Z,28.1530,-82.8010,10.0,0.88,168.17,0.97,'1111122,1111122,1111122' 
COMPS,ioos:station:USF.COMPS:FHP:1,2017-02-01T06:00:00Z,28.1530,-82.8010,10.0,0.99,166.74,1.17,'1111122,1111122,1111122' 
COMPS,ioos:station:USF.COMPS:FHP:1,2017-02-01T06:06:00Z,28.1530,-82.8010,10.0,1.04,168.52,1.37,'1111122,1111122,1111122' 
COMPS,ioos:station:USF.COMPS:FHP:1,2017-02-01T06:12:00Z,28.1530,-82.8010,10.0,1.23,167.23,1.47,'1111122,1111122,1111122' 
COMPS,ioos:station:USF.COMPS:FHP:1,2017-02-01T06:18:00Z,28.1530,-82.8010,10.0,1.18,167.14,1.47,'1111122,1111122,1111122' 
COMPS,ioos:station:USF.COMPS:FHP:1,2017-02-01T06:24:00Z,28.1530,-82.8010,10.0,0.78,156.76,0.97,'1111122,1111122,1111122' 
COMPS,ioos:station:USF.COMPS:FHP:1,2017-02-01T06:30:00Z,28.1530,-82.8010,10.0,0.49,152.51,0.97,'1111122,1111122,1111122' 
COMPS,ioos:station:USF.COMPS:FHP:1,2017-02-01T06:36:00Z,28.1530,-82.8010,10.0,0.43,152.8,0.97,'1111122,1111122,1111122' 
COMPS,ioos:station:USF.COMPS:FHP:1,2017-02-01T06:42:00Z,28.1530,-82.8010,10.0,0.51,174.13,0.88,'1111122,1111122,1111122' 
COMPS,ioos:station:USF.COMPS:FHP:1,2017-02-01T06:48:00Z,28.1530,-82.8010,10.0,0.57,174.53,0.88,'1111122,1111122,1111122' 
COMPS,ioos:station:USF.COMPS:FHP:1,2017-02-01T06:54:00Z,28.1530,-82.8010,10.0,0.38,170.42,0.78,'1111122,1111122,1111122' 
COMPS,ioos:station:USF.COMPS:FHP:1,2017-02-01T07:00:00Z,28.1530,-82.8010,10.0,0.19,169.0,0.58,'1111122,1111122,1111122' 
COMPS,ioos:station:USF.COMPS:FHP:1,2017-02-01T07:06:00Z,28.1530,-82.8010,10.0,0.09,170.48,0.09,'1111122,1111122,1111122' 
COMPS,ioos:station:USF.COMPS:FHP:1,2017-02-01T07:12:00Z,28.1530,-82.8010,10.0,0.09,170.98,0.09,'1111122,1111122,1111122' 
COMPS,ioos:station:USF.COMPS:FHP:1,2017-02-01T07:18:00Z,28.1530,-82.8010,10.0,0.09,168.15,0.09,'1111122,1111122,1111122' 
COMPS,ioos:station:USF.COMPS:FHP:1,2017-02-01T07:24:00Z,28.1530,-82.8010,10.0,0.1,167.86,0.19,'1111122,1111122,1111122' 
COMPS,ioos:station:USF.COMPS:FHP:1,2017-02-01T07:30:00Z,28.1530,-82.8010,10.0,0.16,176.82,0.39,'1111122,1111122,1111122' 
COMPS,ioos:station:USF.COMPS:FHP:1,2017-02-01T07:36:00Z,28.1530,-82.8010,10.0,0.09,168.97,0.09,'1111122,1111122,1111122' 
COMPS,ioos:station:USF.COMPS:FHP:1,2017-02-01T07:42:00Z,28.1530,-82.8010,10.0,0.09,161.01,0.09,'1111122,1111122,1111122' 
COMPS,ioos:station:USF.COMPS:FHP:1,2017-02-01T07:48:00Z,28.1530,-82.8010,10.0,0.12,160.61,0.58,'1111122,1111122,1111122' 
COMPS,ioos:station:USF.COMPS:FHP:1,2017-02-01T07:54:00Z,28.1530,-82.8010,10.0,0.31,141.13,0.78,'1111122,1111122,1111122' 
COMPS,ioos:station:USF.COMPS:FHP:1,2017-02-01T08:00:00Z,28.1530,-82.8010,10.0,0.3,138.27,0.49,'1111122,1111122,1111122' 
COMPS,ioos:station:USF.COMPS:FHP:1,2017-02-01T08:06:00Z,28.1530,-82.8010,10.0,0.5,139.73,0.68,'1111122,1111122,1111122' 
COMPS,ioos:station:USF.COMPS:FHP:1,2017-02-01T08:12:00Z,28.1530,-82.8010,10.0,0.63,140.96,0.88,'1111122,1111122,1111122' 
COMPS,ioos:station:USF.COMPS:FHP:1,2017-02-01T08:18:00Z,28.1530,-82.8010,10.0,0.55,147.3,0.78,'1111122,1111122,1111122' 
COMPS,ioos:station:USF.COMPS:FHP:1,2017-02-01T08:24:00Z,28.1530,-82.8010,10.0,0.51,136.94,0.78,'1111122,1111122,1111122' 
COMPS,ioos:station:USF.COMPS:FHP:1,2017-02-01T08:30:00Z,28.1530,-82.8010,10.0,0.65,130.29,0.88,'1111122,1111122,1111122' 
COMPS,ioos:station:USF.COMPS:FHP:1,2017-02-01T08:36:00Z,28.1530,-82.8010,10.0,0.63,129.69,0.88,'1111122,1111122,1111122' 
COMPS,ioos:station:USF.COMPS:FHP:1,2017-02-01T08:42:00Z,28.1530,-82.8010,10.0,0.49,111.03,0.68,'1111122,1111122,1111122' 
COMPS,ioos:station:USF.COMPS:FHP:1,2017-02-01T08:48:00Z,28.1530,-82.8010,10.0,0.64,102.03,0.88,'1111122,1111122,1111122' 
COMPS,ioos:station:USF.COMPS:FHP:1,2017-02-01T08:54:00Z,28.1530,-82.8010,10.0,0.73,110.2,0.97,'1111122,1111122,1111122' 
COMPS,ioos:station:USF.COMPS:FHP:1,2017-02-01T09:00:00Z,28.1530,-82.8010,10.0,0.96,121.01,1.27,'1111122,1111122,1111122' 
COMPS,ioos:station:USF.COMPS:FHP:1,2017-02-01T09:06:00Z,28.1530,-82.8010,10.0,1.27,113.7,1.47,'1111122,1111122,1111122' 
COMPS,ioos:station:USF.COMPS:FHP:1,2017-02-01T09:12:00Z,28.1530,-82.8010,10.0,1.56,114.44,1.86,'1111122,1111122,1111122' 
COMPS,ioos:station:USF.COMPS:FHP:1,2017-02-01T09:18:00Z,28.1530,-82.8010,10.0,1.58,109.88,1.86,'1111122,1111122,1111122' 
COMPS,ioos:station:USF.COMPS:FHP:1,2017-02-01T09:24:00Z,28.1530,-82.8010,10.0,1.78,117.69,2.15,'1111122,1111122,1111122' 
COMPS,ioos:station:USF.COMPS:FHP:1,2017-02-01T09:30:00Z,28.1530,-82.8010,10.0,1.87,128.31,2.15,'1111122,1111122,1111122' 
COMPS,ioos:station:USF.COMPS:FHP:1,2017-02-01T09:36:00Z,28.1530,-82.8010,10.0,2.09,130.91,2.45,'1111122,1111122,1111122' 
COMPS,ioos:station:USF.COMPS:FHP:1,2017-02-01T09:42:00Z,28.1530,-82.8010,10.0,1.87,124.22,2.15,'1111122,1111122,1111122' 
COMPS,ioos:station:USF.COMPS:FHP:1,2017-02-01T09:48:00Z,28.1530,-82.8010,10.0,1.45,113.54,1.66,'1111122,1111122,1111122' 
COMPS,ioos:station:USF.COMPS:FHP:1,2017-02-01T09:54:00Z,28.1530,-82.8010,10.0,1.28,115.62,1.47,'1111122,1111122,1111122' 
COMPS,ioos:station:USF.COMPS:FHP:1,2017-02-01T10:00:00Z,28.1530,-82.8010,10.0,1.46,111.4,1.86,'1111122,1111122,1111122' 
COMPS,ioos:station:USF.COMPS:FHP:1,2017-02-01T10:06:00Z,28.1530,-82.8010,10.0,1.46,107.76,1.96,'1111122,1111122,1111122' 
COMPS,ioos:station:USF.COMPS:FHP:1,2017-02-01T10:12:00Z,28.1530,-82.8010,10.0,1.68,116.06,1.96,'1111122,1111122,1111122' 
COMPS,ioos:station:USF.COMPS:FHP:1,2017-02-01T10:18:00Z,28.1530,-82.8010,10.0,1.86,126.17,2.74,'1111122,1111122,1111122' 
COMPS,ioos:station:USF.COMPS:FHP:1,2017-02-01T10:24:00Z,28.1530,-82.8010,10.0,2.15,116.94,2.54,'1111122,1111122,1111122' 
COMPS,ioos:station:USF.COMPS:FHP:1,2017-02-01T10:30:00Z,28.1530,-82.8010,10.0,1.86,116.65,2.35,'1111122,1111122,1111122' 
COMPS,ioos:station:USF.COMPS:FHP:1,2017-02-01T10:36:00Z,28.1530,-82.8010,10.0,2.25,124.94,2.64,'1111122,1111122,1111122' 
COMPS,ioos:station:USF.COMPS:FHP:1,2017-02-01T10:42:00Z,28.1530,-82.8010,10.0,2.18,121.86,2.64,'1111122,1111122,1111122' 
COMPS,ioos:station:USF.COMPS:FHP:1,2017-02-01T10:48:00Z,28.1530,-82.8010,10.0,1.89,112.86,2.25,'1111122,1111122,1111122' 
COMPS,ioos:station:USF.COMPS:FHP:1,2017-02-01T10:54:00Z,28.1530,-82.8010,10.0,1.66,123.24,2.35,'1111122,1111122,1111122' 
COMPS,ioos:station:USF.COMPS:FHP:1,2017-02-01T11:00:00Z,28.1530,-82.8010,10.0,2.61,133.02,3.03,'1111122,1111122,1111122' 
COMPS,ioos:station:USF.COMPS:FHP:1,2017-02-01T11:06:00Z,28.1530,-82.8010,10.0,2.38,132.03,2.84,'1111122,1111122,1111122' 
COMPS,ioos:station:USF.COMPS:FHP:1,2017-02-01T11:12:00Z,28.1530,-82.8010,10.0,2.24,122.71,2.64,'1111122,1111122,1111122' 
COMPS,ioos:station:USF.COMPS:FHP:1,2017-02-01T11:18:00Z,28.1530,-82.8010,10.0,2.2,108.36,2.74,'1111122,1111122,1111122' 
COMPS,ioos:station:USF.COMPS:FHP:1,2017-02-01T11:24:00Z,28.1530,-82.8010,10.0,2.43,122.07,2.84,'1111122,1111122,1111122' 
COMPS,ioos:station:USF.COMPS:FHP:1,2017-02-01T11:30:00Z,28.1530,-82.8010,10.0,2.41,124.01,3.03,'1111122,1111122,1111122' 
COMPS,ioos:station:USF.COMPS:FHP:1,2017-02-01T11:36:00Z,28.1530,-82.8010,10.0,3.0,127.24,3.62,'1111122,1111122,1111122' 
COMPS,ioos:station:USF.COMPS:FHP:1,2017-02-01T11:42:00Z,28.1530,-82.8010,10.0,3.48,127.72,3.92,'1111122,1111122,1111122' 
COMPS,ioos:station:USF.COMPS:FHP:1,2017-02-01T11:48:00Z,28.1530,-82.8010,10.0,3.5,126.81,4.01,'1111122,1111122,1111122' 
COMPS,ioos:station:USF.COMPS:FHP:1,2017-02-01T11:54:00Z,28.1530,-82.8010,10.0,3.38,130.41,3.72,'1111122,1111122,1111122' 
COMPS,ioos:station:USF.COMPS:FHP:1,2017-02-01T12:00:00Z,28.1530,-82.8010,10.0,2.85,137.98,3.23,'1111122,1111122,1111122' 
COMPS,ioos:station:USF.COMPS:FHP:1,2017-02-01T12:06:00Z,28.1530,-82.8010,10.0,2.52,137.63,2.84,'1111122,1111122,1111122' 
COMPS,ioos:station:USF.COMPS:FHP:1,2017-02-01T12:12:00Z,28.1530,-82.8010,10.0,2.65,139.35,3.03,'1111122,1111122,1111122' 
COMPS,ioos:station:USF.COMPS:FHP:1,2017-02-01T12:18:00Z,28.1530,-82.8010,10.0,2.56,140.25,3.03,'1111122,1111122,1111122' 
COMPS,ioos:station:USF.COMPS:FHP:1,2017-02-01T12:24:00Z,28.1530,-82.8010,10.0,2.8,128.68,3.43,'1111122,1111122,1111122' 
COMPS,ioos:station:USF.COMPS:FHP:1,2017-02-01T12:30:00Z,28.1530,-82.8010,10.0,3.01,121.61,3.52,'1111122,1111122,1111122' 
COMPS,ioos:station:USF.COMPS:FHP:1,2017-02-01T12:36:00Z,28.1530,-82.8010,10.0,3.42,121.57,3.92,'1111122,1111122,1111122' 
COMPS,ioos:station:USF.COMPS:FHP:1,2017-02-01T12:42:00Z,28.1530,-82.8010,10.0,3.37,121.93,3.82,'1111122,1111122,1111122' 
COMPS,ioos:station:USF.COMPS:FHP:1,2017-02-01T12:48:00Z,28.1530,-82.8010,10.0,3.28,120.44,3.72,'1111122,1111122,1111122' 
COMPS,ioos:station:USF.COMPS:FHP:1,2017-02-01T12:54:00Z,28.1530,-82.8010,10.0,2.82,121.14,3.43,'1111122,1111122,1111122' 
COMPS,ioos:station:USF.COMPS:FHP:1,2017-02-01T13:00:00Z,28.1530,-82.8010,10.0,2.59,120.97,3.03,'1111122,1111122,1111122' 
COMPS,ioos:station:USF.COMPS:FHP:1,2017-02-01T13:06:00Z,28.1530,-82.8010,10.0,2.52,119.78,2.94,'1111122,1111122,1111122' 
COMPS,ioos:station:USF.COMPS:FHP:1,2017-02-01T13:12:00Z,28.1530,-82.8010,10.0,2.55,122.3,3.13,'1111122,1111122,1111122' 
COMPS,ioos:station:USF.COMPS:FHP:1,2017-02-01T13:18:00Z,28.1530,-82.8010,10.0,2.31,120.84,2.74,'1111122,1111122,1111122' 
COMPS,ioos:station:USF.COMPS:FHP:1,2017-02-01T13:24:00Z,28.1530,-82.8010,10.0,2.22,119.16,2.74,'1111122,1111122,1111122' 
COMPS,ioos:station:USF.COMPS:FHP:1,2017-02-01T13:30:00Z,28.1530,-82.8010,10.0,1.96,123.03,2.45,'1111122,1111122,1111122' 
COMPS,ioos:station:USF.COMPS:FHP:1,2017-02-01T13:36:00Z,28.1530,-82.8010,10.0,1.59,122.95,1.96,'1111122,1111122,1111122' 
COMPS,ioos:station:USF.COMPS:FHP:1,2017-02-01T13:42:00Z,28.1530,-82.8010,10.0,1.46,122.28,1.96,'1111122,1111122,1111122' 
COMPS,ioos:station:USF.COMPS:FHP:1,2017-02-01T13:48:00Z,28.1530,-82.8010,10.0,1.5,125.48,2.05,'1111122,1111122,1111122' 
COMPS,ioos:station:USF.COMPS:FHP:1,2017-02-01T13:54:00Z,28.1530,-82.8010,10.0,1.72,133.06,2.45,'1111122,1111122,1111122' 
COMPS,ioos:station:USF.COMPS:FHP:1,2017-02-01T14:00:00Z,28.1530,-82.8010,10.0,1.56,125.63,2.35,'1111122,1111122,1111122' 
COMPS,ioos:station:USF.COMPS:FHP:1,2017-02-01T14:06:00Z,28.1530,-82.8010,10.0,0.52,108.65,0.97,'1111122,1111122,1111122' 
COMPS,ioos:station:USF.COMPS:FHP:1,2017-02-01T14:12:00Z,28.1530,-82.8010,10.0,1.15,117.61,2.94,'1111122,1111122,1111122' 
COMPS,ioos:station:USF.COMPS:FHP:1,2017-02-01T14:18:00Z,28.1530,-82.8010,10.0,2.22,117.27,3.03,'1111122,1111122,1111122' 
COMPS,ioos:station:USF.COMPS:FHP:1,2017-02-01T14:24:00Z,28.1530,-82.8010,10.0,2.02,108.17,3.03,'1111122,1111122,1111122' 
COMPS,ioos:station:USF.COMPS:FHP:1,2017-02-01T14:30:00Z,28.1530,-82.8010,10.0,1.94,102.92,2.64,'1111122,1111122,1111122' 
COMPS,ioos:station:USF.COMPS:FHP:1,2017-02-01T14:36:00Z,28.1530,-82.8010,10.0,1.77,96.29,2.35,'1111122,1111122,1111122' 
COMPS,ioos:station:USF.COMPS:FHP:1,2017-02-01T14:42:00Z,28.1530,-82.8010,10.0,2.36,96.34,3.13,'1111122,1111122,1111122' 
COMPS,ioos:station:USF.COMPS:FHP:1,2017-02-01T14:48:00Z,28.1530,-82.8010,10.0,2.67,93.97,3.43,'1111122,1111122,1111122' 
COMPS,ioos:station:USF.COMPS:FHP:1,2017-02-01T14:54:00Z,28.1530,-82.8010,10.0,2.79,85.39,3.33,'1111122,1111122,1111122' 
COMPS,ioos:station:USF.COMPS:FHP:1,2017-02-01T15:00:00Z,28.1530,-82.8010,10.0,2.78,88.69,3.62,'1111122,1111122,1111122' 
COMPS,ioos:station:USF.COMPS:FHP:1,2017-02-01T15:06:00Z,28.1530,-82.8010,10.0,2.4,98.73,3.23,'1111122,1111122,1111122' 
COMPS,ioos:station:USF.COMPS:FHP:1,2017-02-01T15:12:00Z,28.1530,-82.8010,10.0,2.49,100.46,3.13,'1111122,1111122,1111122' 
COMPS,ioos:station:USF.COMPS:FHP:1,2017-02-01T15:18:00Z,28.1530,-82.8010,10.0,2.81,89.47,3.72,'1111122,1111122,1111122' 
COMPS,ioos:station:USF.COMPS:FHP:1,2017-02-01T15:24:00Z,28.1530,-82.8010,10.0,3.25,76.08,4.11,'1111122,1111122,1111122' 
COMPS,ioos:station:USF.COMPS:FHP:1,2017-02-01T15:30:00Z,28.1530,-82.8010,10.0,3.07,76.77,3.72,'1111122,1111122,1111122' 
COMPS,ioos:station:USF.COMPS:FHP:1,2017-02-01T15:36:00Z,28.1530,-82.8010,10.0,2.74,85.06,3.72,'1111122,1111122,1111122' 
COMPS,ioos:station:USF.COMPS:FHP:1,2017-02-01T15:42:00Z,28.1530,-82.8010,10.0,2.4,92.59,3.13,'1111122,1111122,1111122' 
COMPS,ioos:station:USF.COMPS:FHP:1,2017-02-01T15:48:00Z,28.1530,-82.8010,10.0,2.28,93.29,3.23,'1111122,1111122,1111122' 
COMPS,ioos:station:USF.COMPS:FHP:1,2017-02-01T15:54:00Z,28.1530,-82.8010,10.0,2.0,91.71,2.84,'1111122,1111122,1111122' 
COMPS,ioos:station:USF.COMPS:FHP:1,2017-02-01T16:00:00Z,28.1530,-82.8010,10.0,0.85,109.91,1.96,'1111122,1111122,1111122' 
COMPS,ioos:station:USF.COMPS:FHP:1,2017-02-01T16:06:00Z,28.1530,-82.8010,10.0,1.05,116.84,1.86,'1111122,1111122,1111122' 
COMPS,ioos:station:USF.COMPS:FHP:1,2017-02-01T16:12:00Z,28.1530,-82.8010,10.0,1.29,130.89,1.86,'1111122,1111122,1111122' 
COMPS,ioos:station:USF.COMPS:FHP:1,2017-02-01T16:18:00Z,28.1530,-82.8010,10.0,1.64,146.44,2.54,'1111122,1111122,1111122' 
COMPS,ioos:station:USF.COMPS:FHP:1,2017-02-01T16:24:00Z,28.1530,-82.8010,10.0,2.25,153.62,3.13,'1111122,1111122,1111122' 
COMPS,ioos:station:USF.COMPS:FHP:1,2017-02-01T16:30:00Z,28.1530,-82.8010,10.0,1.04,162.69,1.66,'1111122,1111122,1111122' 
COMPS,ioos:station:USF.COMPS:FHP:1,2017-02-01T16:36:00Z,28.1530,-82.8010,10.0,1.07,186.73,1.37,'1111122,1111122,1111122' 
COMPS,ioos:station:USF.COMPS:FHP:1,2017-02-01T16:42:00Z,28.1530,-82.8010,10.0,0.53,217.84,0.88,'1111122,1111122,1111122' 
COMPS,ioos:station:USF.COMPS:FHP:1,2017-02-01T16:48:00Z,28.1530,-82.8010,10.0,0.99,262.71,1.56,'1111122,1111122,1111122' 
COMPS,ioos:station:USF.COMPS:FHP:1,2017-02-01T16:54:00Z,28.1530,-82.8010,10.0,1.44,290.38,1.86,'1111122,1111122,1111122' 
COMPS,ioos:station:USF.COMPS:FHP:1,2017-02-01T17:00:00Z,28.1530,-82.8010,10.0,1.37,299.32,2.05,'1111122,1111122,1111122' 
COMPS,ioos:station:USF.COMPS:FHP:1,2017-02-01T17:06:00Z,28.1530,-82.8010,10.0,1.92,313.01,2.74,'1111122,1111122,1111122' 
COMPS,ioos:station:USF.COMPS:FHP:1,2017-02-01T17:12:00Z,28.1530,-82.8010,10.0,2.16,322.4,2.54,'1111122,1111122,1111122' 
COMPS,ioos:station:USF.COMPS:FHP:1,2017-02-01T17:18:00Z,28.1530,-82.8010,10.0,2.4,326.34,2.84,'1111122,1111122,1111122' 
COMPS,ioos:station:USF.COMPS:FHP:1,2017-02-01T17:24:00Z,28.1530,-82.8010,10.0,2.54,330.47,2.74,'1111122,1111122,1111122' 
COMPS,ioos:station:USF.COMPS:FHP:1,2017-02-01T17:30:00Z,28.1530,-82.8010,10.0,2.35,336.77,2.64,'1111122,1111122,1111122' 
COMPS,ioos:station:USF.COMPS:FHP:1,2017-02-01T17:36:00Z,28.1530,-82.8010,10.0,2.37,333.66,2.64,'1111122,1111122,1111122' 
COMPS,ioos:station:USF.COMPS:FHP:1,2017-02-01T17:42:00Z,28.1530,-82.8010,10.0,2.47,335.75,2.84,'1111122,1111122,1111122' 
COMPS,ioos:station:USF.COMPS:FHP:1,2017-02-01T17:48:00Z,28.1530,-82.8010,10.0,2.26,334.92,2.54,'1111122,1111122,1111122' 
COMPS,ioos:station:USF.COMPS:FHP:1,2017-02-01T17:54:00Z,28.1530,-82.8010,10.0,2.42,335.25,2.54,'1111122,1111122,1111122' 
COMPS,ioos:station:USF.COMPS:FHP:1,2017-02-01T18:00:00Z,28.1530,-82.8010,10.0,2.63,336.42,2.84,'1111122,1111122,1111122' 
COMPS,ioos:station:USF.COMPS:FHP:1,2017-02-01T18:06:00Z,28.1530,-82.8010,10.0,2.64,333.85,2.94,'1111122,1111122,1111122' 
COMPS,ioos:station:USF.COMPS:FHP:1,2017-02-01T18:12:00Z,28.1530,-82.8010,10.0,2.99,335.06,3.33,'1111122,1111122,1111122' 
COMPS,ioos:station:USF.COMPS:FHP:1,2017-02-01T18:18:00Z,28.1530,-82.8010,10.0,3.48,337.03,3.92,'1111122,1111122,1111122' 
COMPS,ioos:station:USF.COMPS:FHP:1,2017-02-01T18:24:00Z,28.1530,-82.8010,10.0,3.65,337.44,4.01,'1111122,1111122,1111122' 
COMPS,ioos:station:USF.COMPS:FHP:1,2017-02-01T18:30:00Z,28.1530,-82.8010,10.0,3.71,333.22,3.92,'1111122,1111122,1111122' 
COMPS,ioos:station:USF.COMPS:FHP:1,2017-02-01T18:36:00Z,28.1530,-82.8010,10.0,3.34,323.61,4.01,'1111122,1111122,1111122' 
COMPS,ioos:station:USF.COMPS:FHP:1,2017-02-01T18:42:00Z,28.1530,-82.8010,10.0,3.24,320.71,3.82,'1111122,1111122,1111122' 
COMPS,ioos:station:USF.COMPS:FHP:1,2017-02-01T18:48:00Z,28.1530,-82.8010,10.0,3.51,317.03,4.11,'1111122,1111122,1111122' 
COMPS,ioos:station:USF.COMPS:FHP:1,2017-02-01T18:54:00Z,28.1530,-82.8010,10.0,3.52,314.36,4.21,'1111122,1111122,1111122' 
COMPS,ioos:station:USF.COMPS:FHP:1,2017-02-01T19:00:00Z,28.1530,-82.8010,10.0,3.46,313.03,4.21,'1111122,1111122,1111122' 
COMPS,ioos:station:USF.COMPS:FHP:1,2017-02-01T19:06:00Z,28.1530,-82.8010,10.0,3.61,306.05,4.31,'1111122,1111122,1111122' 
COMPS,ioos:station:USF.COMPS:FHP:1,2017-02-01T19:12:00Z,28.1530,-82.8010,10.0,3.57,298.19,4.31,'1111122,1111122,1111122' 
COMPS,ioos:station:USF.COMPS:FHP:1,2017-02-01T19:18:00Z,28.1530,-82.8010,10.0,3.77,299.09,4.6,'1111122,1111122,1111122' 
COMPS,ioos:station:USF.COMPS:FHP:1,2017-02-01T19:24:00Z,28.1530,-82.8010,10.0,3.46,301.28,4.21,'1111122,1111122,1111122' 
COMPS,ioos:station:USF.COMPS:FHP:1,2017-02-01T19:30:00Z,28.1530,-82.8010,10.0,2.96,300.76,3.72,'1111122,1111122,1111122' 